SCP
-0 0 0 0 -0 -0 -0 -0 -0 -0 -0 -0 -0 -0 -0 -0 0 0 0 0 0 -0 -0 -0 -0 -0 -0 -0 -0 -0 -0 -0 0 0 0 0 0 0 0 0 0 0 0
-0 0 0 0 0 0 -0 -0 -0 -0 -0 -0 -0 -0 0 0 0 0 0 0 0 0 -0 -0 -0 -0 -0 -0 -0 -0 -0 0 0 0 0 0 0 0 0 0 0 0 0
0 0 0 0 0 0 0 0 0 0 -0 0 0 0 0 0 0 0 0 0 0 0 0 -0 -0 -0 -0 -0 -0 -0 0 0 0 -0 -0 -0 -0 -0 -0 -0 -0 0 -0
0 0 0 0 0 0 0 0 0 0 0 0 0 0 0 0 0 0 0 0 0 0 0 0 0 0 0 -0 -0 -0 -0 -0 -0 -0 -0 -0 -0 -0 -0 -0 -0 -0 -0
-0 0 -0 -0 -0 -0 0 0 0 0 0 0 0 0 0 0 0 -0 0 0 0 0 0 0 0 0 -0 -0 -0 -0 -0 -0 -0 -0 -0 -0 -0 -0 -0 0 0 0 0
0 0 0 0 -0 -0 -0 -0 0 0 0 0 0 0 0 0 0 -0 0 0 0 0 0 -0 -0 -0 -0 -0 -0 -0 -0 -0 -0 -0 -0 -0 -0 -0 0 0 0 0 0
0 0 0 0 -0 -0 -0 -0 0 0 0 0 0 0 0 -0 -0 -0 -0 -0 -0 -0 -0 -0 -0 -0 -0 -0 -0 -0 -0 -0 -0 -0 -0 -0 -0 0 0 0 0 0 0
0 0 0 0 0 -0 -0 -0 -0 0 0 -0 -0 0 0 -0 -0 0 -0 -0 -0 -0 -0 -0 -0 -0 -0 -0 -0 -0 0 0 -0 -0 -0 -0 0 0 0 0 0 0 0
0 0 0 0 0 0 -0 -0 -0 -0 -0 0 -0 0 0 -0 -0 0 -0 -0 0 0 -0 -0 -0 0 -0 -0 -0 -0 -0 0 0 0 0 0 0 0 0 0 0 0 0
0 0 0 0 0 0 0 0 -0 -0 -0 0 0 0 0 0 0 0 0 0 0 0 0 0 0 0 0 0 0 0 0 0 0 0 0 0 0 0 0 0 0 0 0
1 1 0 0 0 0 0 0 0 0 0 0 0 0 0 0 0 0 0 0 0 0 0 0 0 0 0 0 0 0 0 0 0 0 0 0 0 0 0 0 0 0 0
0 0 0 0 0 0 0 0 0 0 0 0 0 0 0 0 0 0 0 0 0 0 0 0 0 0 0 0 0 0 0 0 0 0 0 0 0 0 0 0 0 0 0
0 0 0 0 0 0 0 0 0 0 0 0 0 0 0 0 0 0 0 0 0 0 0 0 0 0 0 0 0 0 0 0 0 0 0 0 0 0 0 0 0 0 0
0 0 0 0 0 0 0 0 0 0 0 0 0 0 0 0 0 0 0 0 0 0 0 0 0 0 0 0 0 0 0 0 0 0 0 0 0 0 0 0 0 0 0
0 0 0 0 0 0 0 0 0 0 0 0 0 0 0 0 0 0 0 0 0 0 0 0 0 0 0 0 0 0 0 0 0 0 0 0 0 0 0 0 0 0 0
0 0 0 0 0 0 0 0 0 0 0 0 0 0 0 0 0 0 0 0 0 0 0 0 0 0 0 0 0 0 0 0 0 0 0 0 0 0 0 0 0 0 0
0 0 0 0 0 0 0 0 0 0 0 0 0 0 0 0 0 0 0 0 0 0 0 0 0 0 0 0 0 0 0 0 0 0 0 0 0 0 0 0 0 0 0
0 0 0 0 0 0 0 0 0 0 0 0 0 0 0 0 0 0 0 0 0 0 0 0 0 0 0 0 0 0 0 0 0 0 0 0 0 0 0 0 0 0 0
0 0 0 0 0 0 0 0 0 0 0 0 0 0 0 0 0 0 0 0 0 0 0 0 0 0 0 0 0 0 0 0 0 0 0 0 0 0 0 0 0 0 0
0 0 0 0 0 0 0 0 0 0 0 0 0 0 0 0 0 0 0 0 0 0 0 0 0 0 0 0 0 0 0 0 0 0 0 0 0 0 0 0 0 0 0
0 0 0 0 0 0 0 0 0 0 0 0 0 0 0 0 0 0 0 0 0 0 0 0 0 0 0 0 0 0 0 0 0 0 0 0 0 0 0 0 0 0 0
0 0 0 0 0 0 0 0 0 0 0 0 0 0 0 0 0 0 0 0 0 0 0 0 0 0 0 0 0 0 0 0 0 0 0 0 0 0 0 0 0 0 0
0 0 0 0 0 0 0 0 0 0 0 0 0 0 0 0 0 0 0 0 0 0 0 0 0 0 0 0 0 0 0 0 0 0 0 0 0 0 0 0 0 0 0
0 0 0 0 0 0 0 0 0 0 0 0 0 0 0 0 0 0 0 0 0 0 0 0 0 0 0 0 0 0 0 0 0 0 0 0 0 0 0 0 0 0 0
0 0 0 0 0 0 0 0 0 0 0 0 0 0 0 0 0 0 0 0 0 0 0 0 0 0 0 0 0 0 0 0 0 0 0 0 0 0 0 0 0 0 0
0 0 0 0 0 0 0 0 0 0 0 0 0 0 0 0 0 0 0 0 0 0 0 0 0 0 0 0 0 0 0 0 0 0 0 0 0 0 0 0 0 0 0
Wind_Speed_500mb
50 50 42 37 34 30 25 20 16 11 7 4 4 10 14 22 26 28 26 23 18 17 14 15 15 14 13 12 13 15 19 22 22 23 24 25 20 16 22 26 27 27 26
56 53 45 38 35 31 25 20 15 11 8 7 7 13 19 27 29 31 32 26 19 15 10 11 12 13 13 12 13 14 19 21 21 23 25 26 26 24 25 26 27 26 24
55 52 47 40 34 29 24 19 19 18 14 18 18 19 25 28 27 25 26 26 22 18 14 14 15 16 14 12 11 15 18 21 22 22 25 27 28 27 28 29 32 32 22
53 51 46 39 33 29 26 23 23 23 20 16 21 24 27 27 25 23 22 24 25 23 19 17 18 16 13 12 13 16 19 23 24 24 24 27 30 30 29 27 29 27 26
51 50 42 39 34 30 27 26 25 17 7 8 23 27 28 27 25 16 19 23 25 26 25 24 22 17 15 14 16 18 18 19 22 25 27 26 27 24 23 17 22 27 25
52 46 41 38 35 30 27 22 15 9 3 5 23 27 27 26 25 13 18 19 23 25 25 25 23 20 18 18 19 21 21 20 21 19 21 19 13 12 12 13 11 13 17
51 44 42 37 33 29 25 18 12 9 12 16 23 27 24 24 21 15 15 17 19 21 22 22 21 20 19 17 18 20 20 19 17 14 13 12 12 15 14 14 12 8 5
48 45 43 35 30 27 23 17 13 11 15 18 17 22 23 22 16 15 14 14 14 14 16 17 16 14 12 12 13 15 14 14 14 13 13 15 16 18 20 18 18 16 11
45 44 42 33 29 27 19 15 14 14 15 16 15 21 20 16 14 15 14 11 10 10 9 9 8 6 4 3 4 6 7 8 9 10 11 13 15 17 20 21 21 20 17
46 42 38 32 29 27 22 15 13 14 14 15 13 10 16 18 13 11 9 8 8 9 8 6 3 2 2 5 7 8 9 10 10 11 12 15 18 20 21 22 22 21 18
46 41 37 33 29 26 22 18 16 15 14 14 13 11 8 7 7 9 10 10 7 4 4 5 4 4 5 6 8 8 9 9 8 11 13 14 18 21 21 23 24 23 20
47 42 37 33 31 28 23 19 15 14 11 10 8 7 10 11 10 10 11 11 9 8 7 7 10 9 9 11 12 13 13 13 13 15 16 17 18 22 25 24 24 26 23
42 40 37 36 34 30 22 18 14 11 12 11 10 9 9 10 11 11 12 12 12 13 11 10 11 13 13 15 17 17 18 18 18 18 20 21 22 23 25 28 26 25 25
36 32 31 33 36 33 26 20 16 12 11 10 10 12 11 11 12 13 13 13 12 12 13 13 13 15 16 18 20 21 22 23 23 22 23 23 25 26 26 28 30 28 26
32 29 27 28 35 33 28 23 20 14 12 11 9 10 11 12 12 14 14 13 12 11 11 13 14 15 17 19 21 23 25 26 27 28 28 27 27 28 29 30 32 32 29
31 27 25 22 25 27 23 20 18 17 14 12 10 9 8 9 11 11 13 14 14 15 15 14 15 16 17 20 19 22 23 25 27 29 30 30 30 30 29 31 33 34 34
29 25 25 22 22 22 20 18 17 16 17 14 11 12 12 11 10 13 15 15 13 16 18 20 21 22 22 24 24 24 26 26 29 31 32 33 34 34 33 31 32 35 37
33 31 28 28 26 24 22 20 20 20 20 18 18 17 18 19 18 20 21 18 18 21 24 25 26 28 31 31 32 31 32 33 34 36 38 39 40 39 38 37 33 34 37
33 34 34 32 29 27 26 26 27 29 31 26 26 26 24 25 26 28 29 28 27 29 31 33 35 37 39 41 43 44 44 44 43 44 45 46 47 48 47 44 42 40 39
28 29 29 30 27 28 29 30 30 33 34 33 32 31 31 33 33 36 36 36 37 39 41 42 45 45 47 47 49 51 53 53 52 52 52 50 51 50 51 51 50 49 46
33 33 31 32 31 31 32 31 33 33 32 34 35 36 38 41 41 42 44 44 43 44 46 47 50 50 50 48 53 56 58 58 56 53 40 37 34 30 32 35 43 49 51
39 40 39 37 37 38 38 39 40 38 38 39 42 44 45 49 50 52 52 52 52 53 52 53 53 55 55 51 52 55 49 43 45 36 23 26 38 40 43 43 39 42 45
41 43 43 42 42 40 39 40 41 42 44 44 47 50 53 53 54 55 56 57 58 59 59 57 55 55 55 51 47 43 30 33 35 38 33 40 35 37 39 38 41 40 43
43 42 41 40 39 37 36 36 38 39 39 41 44 46 47 48 47 47 48 49 51 53 55 55 51 50 50 51 47 43 42 42 30 26 25 25 34 36 37 37 37 37 38
42 40 39 38 36 36 36 37 39 40 42 44 45 47 50 51 51 51 53 55 56 57 57 57 54 51 52 50 48 43 38 39 40 41 37 32 32 32 34 26 28 30 31
46 44 39 35 33 32 32 34 35 37 37 35 34 33 32 33 34 35 36 37 38 38 39 39 39 43 47 45 46 43 43 35 29 33 38 43 42 40 35 38 28 30 31
Wind_Direction_500mb
166 161 164 170 168 169 169 173 175 176 178 174 111 95 89 105 98 83 102 97 100 112 115 112 106 101 104 96 77 54 35 33 40 54 66 72 83 76 55 51 50 52 60
159 160 169 164 165 167 166 168 165 152 139 122 115 96 105 118 105 89 85 80 81 96 106 100 104 108 105 93 70 41 32 41 57 65 68 71 74 70 63 58 52 49 52
162 161 166 165 163 161 163 163 148 134 122 95 97 101 112 117 111 97 81 70 69 83 98 108 109 106 106 93 64 44 49 65 71 73 74 74 72 70 68 60 51 39 57
164 161 163 163 160 162 163 154 139 136 143 99 96 104 115 119 114 101 83 69 69 76 83 102 115 110 102 87 67 64 71 75 75 75 77 75 77 73 66 58 43 33 64
166 160 160 160 165 165 158 151 148 146 151 100 105 111 117 120 113 112 88 70 73 78 81 96 111 110 101 88 81 76 81 82 82 81 79 74 66 65 64 55 47 48 62
164 163 160 161 169 165 157 155 149 145 79 148 121 118 121 124 119 134 98 80 78 83 85 95 104 108 105 97 90 87 88 89 93 86 76 76 60 26 13 14 15 43 46
164 163 164 169 172 168 166 162 144 97 106 126 138 127 131 132 132 137 115 97 89 94 95 99 106 110 111 104 96 94 91 88 90 78 60 40 18 1 16 20 21 4 87
167 166 165 178 174 174 172 164 136 120 132 137 118 135 137 140 149 159 141 120 102 107 107 106 111 119 117 109 100 100 92 83 72 61 50 37 23 20 19 20 15 10 3
171 169 173 181 180 178 184 173 149 139 145 153 134 137 139 151 173 164 152 126 97 86 79 69 72 74 65 55 80 90 82 72 53 40 29 21 15 18 17 14 16 12 5
172 173 177 182 186 185 186 184 166 153 155 167 169 152 158 162 143 140 163 161 148 132 133 129 93 53 341 339 339 346 359 8 7 6 1 358 355 2 12 10 11 12 7
175 179 182 185 190 191 190 194 179 170 156 162 176 193 206 203 204 191 194 201 201 186 172 190 225 270 298 304 303 299 302 316 329 335 339 340 340 343 354 2 3 3 4
178 182 187 192 197 198 200 193 184 192 184 181 180 196 217 228 234 235 239 242 244 240 237 240 242 257 283 298 301 297 293 294 303 313 322 325 327 330 337 346 353 356 354
183 186 190 197 201 204 202 195 198 211 211 217 228 232 236 241 247 252 255 260 261 251 252 255 259 259 269 282 293 298 299 297 297 299 312 318 320 321 321 328 337 345 348
183 186 195 201 205 209 210 211 217 224 219 223 242 247 251 255 251 256 258 258 260 255 258 267 264 264 271 279 288 295 296 298 298 298 301 309 312 314 311 314 322 329 336
187 192 195 202 203 209 217 222 225 224 218 229 255 260 262 264 253 261 254 257 255 263 275 281 283 278 277 280 285 290 293 295 298 299 300 303 307 305 306 307 311 316 322
195 196 196 193 194 202 211 219 221 219 218 232 248 254 262 266 256 256 252 255 264 270 275 280 285 288 291 294 296 299 299 299 302 300 301 301 301 303 301 302 302 304 309
211 204 205 204 205 207 213 215 217 221 229 239 252 256 260 264 268 263 265 271 278 277 276 279 284 290 293 294 299 298 300 300 298 298 297 295 294 295 298 298 299 299 299
220 221 217 215 218 220 226 231 234 238 244 249 256 262 266 268 269 268 271 276 278 276 277 279 282 285 290 292 295 296 294 291 291 291 289 290 291 291 291 292 294 292 291
216 218 221 222 221 224 228 234 241 243 246 249 254 261 265 269 269 270 271 272 273 273 277 280 282 286 290 292 291 288 287 286 288 287 286 286 287 286 286 286 286 286 283
213 214 217 223 225 226 230 237 244 245 247 251 257 262 263 266 268 268 271 273 273 273 276 282 285 284 285 288 291 289 288 288 287 285 286 287 287 285 284 284 284 283 282
227 227 228 231 232 233 237 243 250 259 263 261 263 266 263 264 266 268 271 273 273 273 275 277 281 282 283 288 289 291 291 291 290 291 297 295 295 294 287 284 282 281 279
231 234 238 238 239 241 244 246 252 259 262 263 263 265 264 264 265 266 270 272 275 276 278 279 278 280 280 284 285 290 293 296 293 291 290 287 293 290 291 293 292 289 286
231 232 234 234 236 239 240 243 249 255 259 261 263 264 266 267 267 268 269 270 272 273 274 274 273 272 274 278 277 278 283 285 288 291 293 300 298 299 298 291 295 290 293
228 229 228 226 227 231 236 242 248 253 256 258 260 262 264 265 265 265 266 267 268 270 272 274 273 271 272 275 278 275 276 277 285 290 286 281 287 288 290 291 291 287 287
220 218 218 220 227 235 242 247 253 257 260 263 264 263 262 262 264 266 267 269 271 271 271 272 271 269 267 269 269 274 274 272 274 271 285 287 288 294 292 293 286 286 289
217 215 217 222 230 239 248 255 259 261 262 261 260 260 261 262 263 265 267 270 272 275 276 277 274 268 263 263 267 267 269 264 268 276 281 290 293 297 298 301 294 288 291
Wind_Speed_850mb
50 50 42 37 34 30 25 20 16 11 7 4 4 10 14 22 26 28 26 23 18 17 14 15 15 14 13 12 13 15 19 22 22 23 24 25 20 16 22 26 27 27 26
56 53 45 38 35 31 25 20 15 11 8 7 7 13 19 27 29 31 32 26 19 15 10 11 12 13 13 12 13 14 19 21 21 23 25 26 26 24 25 26 27 26 24
55 52 47 40 34 29 24 19 19 18 14 18 18 19 25 28 27 25 26 26 22 18 14 14 15 16 14 12 11 15 18 21 22 22 25 27 28 27 28 29 32 32 22
53 51 46 39 33 29 26 23 23 23 20 16 21 24 27 27 25 23 22 24 25 23 19 17 18 16 13 12 13 16 19 23 24 24 24 27 30 30 29 27 29 27 26
51 50 42 39 34 30 27 26 25 17 7 8 23 27 28 27 25 16 19 23 25 26 25 24 22 17 15 14 16 18 18 19 22 25 27 26 27 24 23 17 22 27 25
52 46 41 38 35 30 27 22 15 9 3 5 23 27 27 26 25 13 18 19 23 25 25 25 23 20 18 18 19 21 21 20 21 19 21 19 13 12 12 13 11 13 17
51 44 42 37 33 29 25 18 12 9 12 16 23 27 24 24 21 15 15 17 19 21 22 22 21 20 19 17 18 20 20 19 17 14 13 12 12 15 14 14 12 8 5
48 45 43 35 30 27 23 17 13 11 15 18 17 22 23 22 16 15 14 14 14 14 16 17 16 14 12 12 13 15 14 14 14 13 13 15 16 18 20 18 18 16 11
45 44 42 33 29 27 19 15 14 14 15 16 15 21 20 16 14 15 14 11 10 10 9 9 8 6 4 3 4 6 7 8 9 10 11 13 15 17 20 21 21 20 17
46 42 38 32 29 27 22 15 13 14 14 15 13 10 16 18 13 11 9 8 8 9 8 6 3 2 2 5 7 8 9 10 10 11 12 15 18 20 21 22 22 21 18
46 41 37 33 29 26 22 18 16 15 14 14 13 11 8 7 7 9 10 10 7 4 4 5 4 4 5 6 8 8 9 9 8 11 13 14 18 21 21 23 24 23 20
47 42 37 33 31 28 23 19 15 14 11 10 8 7 10 11 10 10 11 11 9 8 7 7 10 9 9 11 12 13 13 13 13 15 16 17 18 22 25 24 24 26 23
42 40 37 36 34 30 22 18 14 11 12 11 10 9 9 10 11 11 12 12 12 13 11 10 11 13 13 15 17 17 18 18 18 18 20 21 22 23 25 28 26 25 25
36 32 31 33 36 33 26 20 16 12 11 10 10 12 11 11 12 13 13 13 12 12 13 13 13 15 16 18 20 21 22 23 23 22 23 23 25 26 26 28 30 28 26
32 29 27 28 35 33 28 23 20 14 12 11 9 10 11 12 12 14 14 13 12 11 11 13 14 15 17 19 21 23 25 26 27 28 28 27 27 28 29 30 32 32 29
31 27 25 22 25 27 23 20 18 17 14 12 10 9 8 9 11 11 13 14 14 15 15 14 15 16 17 20 19 22 23 25 27 29 30 30 30 30 29 31 33 34 34
29 25 25 22 22 22 20 18 17 16 17 14 11 12 12 11 10 13 15 15 13 16 18 20 21 22 22 24 24 24 26 26 29 31 32 33 34 34 33 31 32 35 37
33 31 28 28 26 24 22 20 20 20 20 18 18 17 18 19 18 20 21 18 18 21 24 25 26 28 31 31 32 31 32 33 34 36 38 39 40 39 38 37 33 34 37
33 34 34 32 29 27 26 26 27 29 31 26 26 26 24 25 26 28 29 28 27 29 31 33 35 37 39 41 43 44 44 44 43 44 45 46 47 48 47 44 42 40 39
28 29 29 30 27 28 29 30 30 33 34 33 32 31 31 33 33 36 36 36 37 39 41 42 45 45 47 47 49 51 53 53 52 52 52 50 51 50 51 51 50 49 46
33 33 31 32 31 31 32 31 33 33 32 34 35 36 38 41 41 42 44 44 43 44 46 47 50 50 50 48 53 56 58 58 56 53 40 37 34 30 32 35 43 49 51
39 40 39 37 37 38 38 39 40 38 38 39 42 44 45 49 50 52 52 52 52 53 52 53 53 55 55 51 52 55 49 43 45 36 23 26 38 40 43 43 39 42 45
41 43 43 42 42 40 39 40 41 42 44 44 47 50 53 53 54 55 56 57 58 59 59 57 55 55 55 51 47 43 30 33 35 38 33 40 35 37 39 38 41 40 43
43 42 41 40 39 37 36 36 38 39 39 41 44 46 47 48 47 47 48 49 51 53 55 55 51 50 50 51 47 43 42 42 30 26 25 25 34 36 37 37 37 37 38
42 40 39 38 36 36 36 37 39 40 42 44 45 47 50 51 51 51 53 55 56 57 57 57 54 51 52 50 48 43 38 39 40 41 37 32 32 32 34 26 28 30 31
46 44 39 35 33 32 32 34 35 37 37 35 34 33 32 33 34 35 36 37 38 38 39 39 39 43 47 45 46 43 43 35 29 33 38 43 42 40 35 38 28 30 31
Wind_Direction_850mb
166 161 164 170 168 169 169 173 175 176 178 174 111 95 89 105 98 83 102 97 100 112 115 112 106 101 104 96 77 54 35 33 40 54 66 72 83 76 55 51 50 52 60
159 160 169 164 165 167 166 168 165 152 139 122 115 96 105 118 105 89 85 80 81 96 106 100 104 108 105 93 70 41 32 41 57 65 68 71 74 70 63 58 52 49 52
162 161 166 165 163 161 163 163 148 134 122 95 97 101 112 117 111 97 81 70 69 83 98 108 109 106 106 93 64 44 49 65 71 73 74 74 72 70 68 60 51 39 57
164 161 163 163 160 162 163 154 139 136 143 99 96 104 115 119 114 101 83 69 69 76 83 102 115 110 102 87 67 64 71 75 75 75 77 75 77 73 66 58 43 33 64
166 160 160 160 165 165 158 151 148 146 151 100 105 111 117 120 113 112 88 70 73 78 81 96 111 110 101 88 81 76 81 82 82 81 79 74 66 65 64 55 47 48 62
164 163 160 161 169 165 157 155 149 145 79 148 121 118 121 124 119 134 98 80 78 83 85 95 104 108 105 97 90 87 88 89 93 86 76 76 60 26 13 14 15 43 46
164 163 164 169 172 168 166 162 144 97 106 126 138 127 131 132 132 137 115 97 89 94 95 99 106 110 111 104 96 94 91 88 90 78 60 40 18 1 16 20 21 4 87
167 166 165 178 174 174 172 164 136 120 132 137 118 135 137 140 149 159 141 120 102 107 107 106 111 119 117 109 100 100 92 83 72 61 50 37 23 20 19 20 15 10 3
171 169 173 181 180 178 184 173 149 139 145 153 134 137 139 151 173 164 152 126 97 86 79 69 72 74 65 55 80 90 82 72 53 40 29 21 15 18 17 14 16 12 5
172 173 177 182 186 185 186 184 166 153 155 167 169 152 158 162 143 140 163 161 148 132 133 129 93 53 341 339 339 346 359 8 7 6 1 358 355 2 12 10 11 12 7
175 179 182 185 190 191 190 194 179 170 156 162 176 193 206 203 204 191 194 201 201 186 172 190 225 270 298 304 303 299 302 316 329 335 339 340 340 343 354 2 3 3 4
178 182 187 192 197 198 200 193 184 192 184 181 180 196 217 228 234 235 239 242 244 240 237 240 242 257 283 298 301 297 293 294 303 313 322 325 327 330 337 346 353 356 354
183 186 190 197 201 204 202 195 198 211 211 217 228 232 236 241 247 252 255 260 261 251 252 255 259 259 269 282 293 298 299 297 297 299 312 318 320 321 321 328 337 345 348
183 186 195 201 205 209 210 211 217 224 219 223 242 247 251 255 251 256 258 258 260 255 258 267 264 264 271 279 288 295 296 298 298 298 301 309 312 314 311 314 322 329 336
187 192 195 202 203 209 217 222 225 224 218 229 255 260 262 264 253 261 254 257 255 263 275 281 283 278 277 280 285 290 293 295 298 299 300 303 307 305 306 307 311 316 322
195 196 196 193 194 202 211 219 221 219 218 232 248 254 262 266 256 256 252 255 264 270 275 280 285 288 291 294 296 299 299 299 302 300 301 301 301 303 301 302 302 304 309
211 204 205 204 205 207 213 215 217 221 229 239 252 256 260 264 268 263 265 271 278 277 276 279 284 290 293 294 299 298 300 300 298 298 297 295 294 295 298 298 299 299 299
220 221 217 215 218 220 226 231 234 238 244 249 256 262 266 268 269 268 271 276 278 276 277 279 282 285 290 292 295 296 294 291 291 291 289 290 291 291 291 292 294 292 291
216 218 221 222 221 224 228 234 241 243 246 249 254 261 265 269 269 270 271 272 273 273 277 280 282 286 290 292 291 288 287 286 288 287 286 286 287 286 286 286 286 286 283
213 214 217 223 225 226 230 237 244 245 247 251 257 262 263 266 268 268 271 273 273 273 276 282 285 284 285 288 291 289 288 288 287 285 286 287 287 285 284 284 284 283 282
227 227 228 231 232 233 237 243 250 259 263 261 263 266 263 264 266 268 271 273 273 273 275 277 281 282 283 288 289 291 291 291 290 291 297 295 295 294 287 284 282 281 279
231 234 238 238 239 241 244 246 252 259 262 263 263 265 264 264 265 266 270 272 275 276 278 279 278 280 280 284 285 290 293 296 293 291 290 287 293 290 291 293 292 289 286
231 232 234 234 236 239 240 243 249 255 259 261 263 264 266 267 267 268 269 270 272 273 274 274 273 272 274 278 277 278 283 285 288 291 293 300 298 299 298 291 295 290 293
228 229 228 226 227 231 236 242 248 253 256 258 260 262 264 265 265 265 266 267 268 270 272 274 273 271 272 275 278 275 276 277 285 290 286 281 287 288 290 291 291 287 287
220 218 218 220 227 235 242 247 253 257 260 263 264 263 262 262 264 266 267 269 271 271 271 272 271 269 267 269 269 274 274 272 274 271 285 287 288 294 292 293 286 286 289
217 215 217 222 230 239 248 255 259 261 262 261 260 260 261 262 263 265 267 270 272 275 276 277 274 268 263 263 267 267 269 264 268 276 281 290 293 297 298 301 294 288 291